Location: �chemir�
(47.5500°N, 0.1667°W)
Time: 03:31:49
(UTC+01:00)

ISS - Visible Passes

Search period start: 24 March 2019 00:00
Search period end: 03 April 2019 01:00
Orbit: 408 x 411 km, 51.6° (Epoch: 23 March)

Date Brightness Start Highest point End Pass type
(mag) Time Alt. Az. Time Alt. Az. Time Alt. Az.
24 Mar -3.7 21:06:02 10° WSW 21:09:20 73° NNW 21:09:56 54° NE visible
25 Mar -3.9 20:15:22 10° WSW 20:18:40 78° SSE 20:21:39 12° ENE visible
25 Mar -1.9 21:52:18 10° W 21:54:26 31° NW 21:54:26 31° NW visible
26 Mar -3.0 21:01:28 10° W 21:04:41 48° NNW 21:06:00 29° NE visible
26 Mar -0.4 22:38:30 10° WNW 22:38:46 12° WNW 22:38:46 12° WNW visible
27 Mar -3.4 20:10:40 10° W 20:13:57 61° NNW 20:17:14 10° ENE visible
27 Mar -2.2 21:47:44 10° WNW 21:50:14 34° NNW 21:50:14 34° NNW visible
28 Mar -2.7 20:56:55 10° WNW 21:00:04 39° N 21:01:38 23° NE visible
28 Mar -0.6 22:33:46 10° WNW 22:34:24 15° WNW 22:34:24 15° WNW visible
29 Mar -2.8 20:06:04 10° W 20:09:15 43° N 20:12:26 10° ENE visible
29 Mar -2.6 21:43:02 10° WNW 21:45:44 40° NNW 21:45:44 40° NNW visible
30 Mar -2.8 20:52:17 10° WNW 20:55:25 39° N 20:57:03 23° ENE visible
30 Mar -0.9 22:28:56 10° WNW 22:29:48 17° WNW 22:29:48 17° WNW visible
31 Mar -2.7 21:01:26 10° WNW 21:04:35 38° N 21:07:43 10° ENE visible
31 Mar -3.3 22:38:12 10° WNW 22:41:05 56° NNW 22:41:05 56° NNW visible
01 Apr -3.2 21:47:28 10° WNW 21:50:42 49° NNE 21:52:22 24° ENE visible
01 Apr -1.1 23:24:07 10° WNW 23:25:07 18° W 23:25:07 18° W visible
02 Apr -2.9 20:56:40 10° WNW 20:59:51 42° N 21:03:01 10° E visible
02 Apr -3.7 22:33:18 10° WNW 22:36:24 69° WSW 22:36:24 69° WSW visible
